Location: Brivio
(45.7333°N, 9.4500°E)
Time: 09:04:23
(UTC+00:00)

Cosmos 1727 Rocket - Pass Details

Date: 18 October 2019
Orbit: 961 x 996 km, 82.9° (Epoch: 13 November)

Event Time Altitude Azimuth Distance (km) Brightness Sun altitude
Rises 17:40:37 0° 165° (SSE) 3,641 6.9 -12.7°
Reaches altitude 10° 17:43:13 10° 159° (SSE) 2,695 6.1 -13.2°
Maximum altitude 17:49:00 44° 90° (E) 1,305 4.2 -14.2°
Drops below altitude 10° 17:54:48 10° 20° (NNE) 2,706 6.1 -15.2°
Sets 17:57:24 0° 14° (NNE) 3,658 6.9 -15.6°
